When you browse on this site, cookies collect data to enhance your experience and personalize the content and advertising you see.
Visit our Privacy Policy to learn more. By continuing to use the site, you agree to this use of cookies and data.
  • In Lithuania
  • List of Countries
  • For 7 days
  • Water Temperature
  • Weather Map
  • Weather Widgets
  • user-avatar
    Login

    Hourly Weather Mochudi

    Today, 19 September, Thursday

    Time Temperature Precipitation Wind Pressure Humidity
    00:00 +24°C° 0 mm 1 mps 683 mmHg 25%
    01:00 +23°C° 0 mm 1 mps 683 mmHg 26%
    02:00 +21°C° 0 mm 2 mps 683 mmHg 28%
    03:00 +21°C° 0 mm 1 mps 683 mmHg 30%
    04:00 +20°C° 0 mm 1 mps 683 mmHg 32%
    05:00 +20°C° 0 mm 1 mps 683 mmHg 34%
    06:00 +20°C° 0 mm 2 mps 684 mmHg 32%
    07:00 +23°C° 0 mm 2 mps 685 mmHg 30%
    08:00 +24°C° 0 mm 3 mps 685 mmHg 28%
    09:00 +27°C° 0 mm 3 mps 686 mmHg 23%
    10:00 +30°C° 0 mm 4 mps 686 mmHg 18%
    11:00 +33°C° 0 mm 5 mps 687 mmHg 13%
    12:00 +35°C° 0 mm 5 mps 686 mmHg 12%
    13:00 +36°C° 0 mm 5 mps 685 mmHg 10%
    14:00 +37°C° 0 mm 5 mps 685 mmHg 9%
    15:00 +36°C° 0 mm 5 mps 684 mmHg 10%
    16:00 +36°C° 0 mm 5 mps 684 mmHg 10%
    17:00 +36°C° 0 mm 5 mps 684 mmHg 10%
    18:00 +33°C° 0 mm 5 mps 684 mmHg 13%
    19:00 +30°C° 0 mm 4 mps 684 mmHg 15%
    20:00 +27°C° 0 mm 4 mps 684 mmHg 18%
    21:00 +27°C° 0 mm 4 mps 684 mmHg 22%
    22:00 +26°C° 0 mm 4 mps 684 mmHg 25%
    23:00 +25°C° 0 mm 4 mps 685 mmHg 29%

    Tomorrow, 20 September, Friday

    Time Temperature Precipitation Wind Pressure Humidity
    00:00 +23°C° 0 mm 4 mps 684 mmHg 33%
    01:00 +21°C° 0 mm 3 mps 684 mmHg 38%
    02:00 +20°C° 0 mm 3 mps 684 mmHg 42%
    03:00 +19°C° 0 mm 3 mps 684 mmHg 45%
    04:00 +18°C° 0 mm 2 mps 684 mmHg 49%
    05:00 +18°C° 0 mm 2 mps 684 mmHg 52%
    06:00 +19°C° 0 mm 2 mps 684 mmHg 49%
    07:00 +20°C° 0 mm 3 mps 685 mmHg 47%
    08:00 +21°C° 0 mm 4 mps 685 mmHg 44%
    09:00 +25°C° 0 mm 4 mps 686 mmHg 38%
    10:00 +27°C° 0 mm 4 mps 686 mmHg 31%
    11:00 +30°C° 0 mm 5 mps 686 mmHg 25%
    12:00 +32°C° 0 mm 5 mps 685 mmHg 21%
    13:00 +34°C° 0 mm 5 mps 684 mmHg 17%
    14:00 +35°C° 0 mm 6 mps 684 mmHg 12%
    15:00 +35°C° 0 mm 6 mps 683 mmHg 12%
    16:00 +35°C° 0 mm 6 mps 683 mmHg 12%
    17:00 +35°C° 0 mm 6 mps 682 mmHg 11%
    18:00 +32°C° 0 mm 5 mps 682 mmHg 13%
    19:00 +29°C° 0 mm 4 mps 682 mmHg 15%
    20:00 +26°C° 0 mm 3 mps 682 mmHg 18%
    21:00 +25°C° 0 mm 3 mps 682 mmHg 20%
    22:00 +24°C° 0 mm 3 mps 682 mmHg 22%
    23:00 +22°C° 0 mm 3 mps 682 mmHg 24%

    Day after tomorrow, 21 September, Saturday

    Time Temperature Precipitation Wind Pressure Humidity
    00:00 +21°C° 0 mm 3 mps 682 mmHg 27%
    01:00 +20°C° 0 mm 2 mps 682 mmHg 31%
    02:00 +19°C° 0 mm 2 mps 681 mmHg 34%
    03:00 +18°C° 0 mm 2 mps 681 mmHg 39%
    04:00 +18°C° 0 mm 2 mps 681 mmHg 43%
    05:00 +17°C° 0 mm 3 mps 681 mmHg 47%
    06:00 +18°C° 0 mm 3 mps 682 mmHg 47%
    07:00 +20°C° 0 mm 3 mps 682 mmHg 47%
    08:00 +21°C° 0 mm 4 mps 683 mmHg 46%
    09:00 +25°C° 0 mm 4 mps 683 mmHg 39%
    10:00 +27°C° 0 mm 4 mps 683 mmHg 31%
    11:00 +30°C° 0 mm 4 mps 683 mmHg 24%
    12:00 +33°C° 0 mm 4 mps 682 mmHg 20%
    13:00 +34°C° 0 mm 5 mps 682 mmHg 15%
    14:00 +36°C° 0 mm 5 mps 681 mmHg 11%
    15:00 +36°C° 0 mm 4 mps 681 mmHg 11%
    16:00 +35°C° 0 mm 4 mps 680 mmHg 10%
    17:00 +35°C° 0 mm 4 mps 680 mmHg 10%
    18:00 +31°C° 0 mm 3 mps 679 mmHg 12%
    19:00 +29°C° 0 mm 3 mps 679 mmHg 14%
    20:00 +26°C° 0 mm 3 mps 679 mmHg 17%
    21:00 +25°C° 0 mm 3 mps 679 mmHg 18%
    22:00 +24°C° 0 mm 3 mps 679 mmHg 20%
    23:00 +24°C° 0 mm 3 mps 679 mmHg 21%

    22 September, Sunday

    Time Temperature Precipitation Wind Pressure Humidity
    00:00 +22°C° 0 mm 3 mps 679 mmHg 23%
    01:00 +21°C° 0 mm 3 mps 679 mmHg 25%
    02:00 +20°C° 0 mm 3 mps 678 mmHg 27%
    03:00 +20°C° 0 mm 3 mps 678 mmHg 30%
    04:00 +19°C° 0 mm 3 mps 678 mmHg 32%
    05:00 +18°C° 0 mm 3 mps 678 mmHg 35%
    06:00 +20°C° 0 mm 3 mps 679 mmHg 32%
    07:00 +21°C° 0 mm 3 mps 679 mmHg 29%
    08:00 +24°C° 0 mm 3 mps 680 mmHg 27%
    09:00 +26°C° 0 mm 3 mps 680 mmHg 22%
    10:00 +29°C° 0 mm 3 mps 680 mmHg 18%
    11:00 +32°C° 0 mm 2 mps 681 mmHg 14%
    12:00 +34°C° 0 mm 3 mps 680 mmHg 12%
    13:00 +36°C° 0 mm 3 mps 680 mmHg 10%
    14:00 +38°C° 0 mm 4 mps 679 mmHg 8%
    15:00 +37°C° 0 mm 4 mps 679 mmHg 7%
    16:00 +37°C° 0 mm 4 mps 678 mmHg 7%
    17:00 +37°C° 0 mm 5 mps 678 mmHg 7%
    18:00 +34°C° 0 mm 5 mps 678 mmHg 9%
    19:00 +32°C° 0 mm 5 mps 679 mmHg 11%
    20:00 +28°C° 0 mm 5 mps 679 mmHg 13%
    21:00 +27°C° 0 mm 5 mps 679 mmHg 13%
    22:00 +25°C° 0 mm 5 mps 679 mmHg 12%
    23:00 +23°C° 0 mm 5 mps 680 mmHg 12%

    23 September, Monday

    Time Temperature Precipitation Wind Pressure Humidity
    00:00 +21°C° 0 mm 4 mps 680 mmHg 12%
    01:00 +19°C° 0 mm 4 mps 680 mmHg 12%
    02:00 +18°C° 0 mm 3 mps 680 mmHg 12%
    03:00 +17°C° 0 mm 4 mps 680 mmHg 16%
    04:00 +14°C° 0 mm 4 mps 680 mmHg 20%
    05:00 +13°C° 0 mm 4 mps 680 mmHg 24%
    06:00 +14°C° 0 mm 4 mps 681 mmHg 25%
    07:00 +14°C° 0 mm 5 mps 681 mmHg 26%
    08:00 +15°C° 0 mm 5 mps 682 mmHg 28%
    09:00 +19°C° 0 mm 5 mps 682 mmHg 23%
    10:00 +21°C° 0 mm 4 mps 682 mmHg 18%
    11:00 +23°C° 0 mm 4 mps 683 mmHg 13%
    12:00 +26°C° 0 mm 4 mps 682 mmHg 11%
    13:00 +28°C° 0 mm 3 mps 682 mmHg 9%
    14:00 +30°C° 0 mm 3 mps 681 mmHg 6%
    15:00 +31°C° 0 mm 3 mps 681 mmHg 6%
    16:00 +31°C° 0 mm 2 mps 681 mmHg 5%
    17:00 +31°C° 0 mm 2 mps 681 mmHg 5%
    18:00 +28°C° 0 mm 2 mps 681 mmHg 7%
    19:00 +25°C° 0 mm 3 mps 681 mmHg 8%
    20:00 +22°C° 0 mm 3 mps 681 mmHg 10%
    21:00 +20°C° 0 mm 3 mps 681 mmHg 13%
    22:00 +19°C° 0 mm 3 mps 681 mmHg 16%
    23:00 +18°C° 0 mm 3 mps 681 mmHg 20%

    24 September, Tuesday

    Time Temperature Precipitation Wind Pressure Humidity
    00:00 +17°C° 0 mm 3 mps 681 mmHg 22%
    01:00 +16°C° 0 mm 2 mps 681 mmHg 23%
    02:00 +16°C° 0 mm 2 mps 680 mmHg 25%
    03:00 +15°C° 0 mm 2 mps 681 mmHg 27%
    04:00 +14°C° 0 mm 2 mps 681 mmHg 28%
    05:00 +14°C° 0 mm 2 mps 681 mmHg 29%
    06:00 +15°C° 0 mm 2 mps 682 mmHg 30%
    07:00 +17°C° 0 mm 2 mps 682 mmHg 31%
    08:00 +18°C° 0 mm 3 mps 683 mmHg 31%
    09:00 +20°C° 0 mm 3 mps 683 mmHg 33%
    10:00 +23°C° 0 mm 4 mps 683 mmHg 34%
    11:00 +26°C° 0 mm 4 mps 684 mmHg 36%
    12:00 +27°C° 0 mm 4 mps 683 mmHg 33%
    13:00 +28°C° 0 mm 4 mps 682 mmHg 29%
    14:00 +29°C° 0 mm 4 mps 682 mmHg 26%
    15:00 +29°C° 0 mm 3 mps 682 mmHg 25%
    16:00 +29°C° 0 mm 3 mps 681 mmHg 24%
    17:00 +29°C° 0 mm 3 mps 681 mmHg 24%
    18:00 +27°C° 0 mm 3 mps 681 mmHg 28%
    19:00 +25°C° 0 mm 3 mps 681 mmHg 33%
    20:00 +22°C° 0 mm 3 mps 682 mmHg 38%
    21:00 +21°C° 0 mm 4 mps 682 mmHg 44%
    22:00 +20°C° 0 mm 5 mps 682 mmHg 51%
    23:00 +19°C° 0 mm 6 mps 682 mmHg 57%
    Show more